OK,89,65,978,89,2014-10-01T01:40:00,0,28072748,187059
OK,89,65,978,89,2014-10-01T01:45:00,0,28073195,187059
OK,89,65,978,89,2014-10-01T01:50:00,0,28073643,187059
OK,89,65,978,89,2014-10-01T01:55:00,0,28073961,187059
OK,89,65,978,89,2014-10-01T02:00:00,0,28074410,187059
OK,89,65,978,89,2014-10-01T02:05:00,0,28074850,187059
OK,89,65,978,89,2014-10-01T02:10:00,0,28075299,187059
OK,89,65,978,89,2014-10-01T02:15:00,0,28075748,187059
OK,89,65,978,89,2014-10-01T02:20:00,0,28076131,187059
OK,89,65,978,89,2014-10-01T02:25:00,0,28076580,187059
OK,89,65,978,89,2014-10-01T02:30:00,0,28077029,187059
OK,89,65,978,89,2014-10-01T02:35:00,0,28077478,187059
OK,89,65,978,89,2014-10-01T02:40:00,0,28077881,187059
OK,89,65,978,89,2014-10-01T02:45:00,0,28078330,187059
OK,89,65,978,89,2014-10-01T02:50:00,0,28078775,187059
OK,89,65,978,89,2014-10-01T02:55:00,0,28079224,187059
OK,89,65,978,89,2014-10-01T03:00:00,0,28079666,187059
OK,89,65,978,89,2014-10-01T03:05:00,0,28080115,187059
OK,89,65,978,89,2014-10-01T03:10:00,0,28080449,187059
OK,147,39,978,147,2014-10-01T03:15:00,1,28080898,187059
OK,147,39,978,147,2014-10-01T03:20:00,1,28081347,187059
OK,147,39,978,147,2014-10-01T03:25:00,0,28081794,187059
OK,147,39,978,147,2014-10-01T03:30:00,0,28082243,187059
OK,54,107,978,54,2014-10-01T03:35:00,1,28082676,187059
OK,158,36,978,158,2014-10-01T03:40:00,2,28083108,187059
OK,158,36,978,158,2014-10-01T03:45:00,0,28083557,187059
OK,158,36,978,158,2014-10-01T03:50:00,0,28084006,187059
OK,158,36,978,158,2014-10-01T03:55:00,0,28084447,187059
OK,158,36,978,158,2014-10-01T04:00:00,0,28084872,187059
OK,158,36,978,158,2014-10-01T04:05:00,0,28085321,187059
OK,158,36,978,158,2014-10-01T04:10:00,0,28085766,187059
OK,158,36,978,158,2014-10-01T04:15:00,0,28086215,187059
OK,154,37,978,154,2014-10-01T04:20:00,1,28086657,187059
OK,151,38,978,151,2014-10-01T04:25:00,2,28087106,187059
OK,146,39,978,146,2014-10-01T04:30:00,2,28087551,187059
OK,143,40,978,143,2014-10-01T04:35:00,1,28088000,187059
OK,179,32,978,179,2014-10-01T04:40:00,1,28088424,187059
OK,166,35,978,166,2014-10-01T04:45:00,4,28088873,187059
OK,153,38,978,153,2014-10-01T04:50:00,5,28089303,187059
OK,148,39,978,148,2014-10-01T04:55:00,2,28089752,187059
OK,148,39,978,148,2014-10-01T05:00:00,0,28090201,187059
OK,155,37,978,155,2014-10-01T05:05:00,3,28090545,187059
OK,155,37,978,155,2014-10-01T05:10:00,3,28090994,187059
OK,306,19,978,306,2014-10-01T05:15:00,0,28091443,187059
OK,306,19,978,306,2014-10-01T05:20:00,0,28091860,187059
OK,154,37,978,154,2014-10-01T05:25:00,3,28092309,187059
OK,174,33,978,174,2014-10-01T05:30:00,4,28092753,187059
OK,194,30,978,194,2014-10-01T05:35:00,1,28093194,187059
OK,275,21,978,275,2014-10-01T05:40:00,3,28093625,187059
OK,275,21,978,275,2014-10-01T05:45:00,3,28094074,187059
OK,305,19,978,305,2014-10-01T05:50:00,1,28094485,187059
OK,305,19,978,305,2014-10-01T05:55:00,1,28094930,187059
OK,347,16,978,347,2014-10-01T06:00:00,1,28095377,187059
OK,401,14,978,401,2014-10-01T06:05:00,2,28095826,187059
OK,436,13,978,436,2014-10-01T06:10:00,3,28096239,187059
OK,408,14,978,408,2014-10-01T06:15:00,5,28096688,187059
OK,370,15,978,370,2014-10-01T06:20:00,5,28097122,187059
OK,301,19,978,301,2014-10-01T06:25:00,3,28097571,187059
OK,242,24,978,242,2014-10-01T06:30:00,5,28098020,187059
OK,242,24,978,242,2014-10-01T06:35:00,5,28098457,187059
OK,138,42,978,138,2014-10-01T06:40:00,1,28098901,187059
OK,148,39,978,148,2014-10-01T06:45:00,5,28099349,187059
OK,171,34,978,171,2014-10-01T06:50:00,10,28099692,187059
OK,179,32,978,179,2014-10-01T06:55:00,5,28100141,187059
OK,150,38,978,150,2014-10-01T07:00:00,1,28100448,187059
OK,120,48,978,120,2014-10-01T07:05:00,2,28100897,187059
OK,133,43,978,133,2014-10-01T07:10:00,1,28101268,187059
OK,133,43,978,133,2014-10-01T07:15:00,0,28101717,187059
OK,167,34,978,167,2014-10-01T07:20:00,1,28102153,187059
OK,140,41,978,140,2014-10-01T07:25:00,4,28102602,187059
OK,167,34,978,167,2014-10-01T07:30:00,0,28103030,187059
OK,211,27,978,211,2014-10-01T07:35:00,1,28103476,187059
OK,183,31,978,183,2014-10-01T07:40:00,5,28103921,187059
OK,182,32,978,182,2014-10-01T07:45:00,4,28104366,187059
OK,182,32,978,182,2014-10-01T07:50:00,0,28104807,187059
OK,182,32,978,182,2014-10-01T07:55:00,0,28105252,187059
OK,180,32,978,180,2014-10-01T08:00:00,3,28105692,187059
OK,173,33,978,173,2014-10-01T08:05:00,2,28106141,187059
OK,166,35,978,166,2014-10-01T08:10:00,2,28106578,187059
OK,150,38,978,150,2014-10-01T08:15:00,2,28106984,187059
OK,136,42,978,136,2014-10-01T08:20:00,0,28107416,187059
OK,153,38,978,153,2014-10-01T08:25:00,1,28107865,187059
OK,163,35,978,163,2014-10-01T08:30:00,2,28108304,187059
OK,162,35,978,162,2014-10-01T08:35:00,2,28108753,187059
OK,157,37,978,157,2014-10-01T08:40:00,3,28109181,187059
OK,157,37,978,157,2014-10-01T08:45:00,3,28109630,187059
OK,157,37,978,157,2014-10-01T08:50:00,0,28109973,187059
OK,157,37,978,157,2014-10-01T08:55:00,0,28110422,187059
OK,156,37,978,156,2014-10-01T09:00:00,2,28110845,187059
OK,156,37,978,156,2014-10-01T09:05:00,2,28111294,187059
OK,167,34,978,167,2014-10-01T09:10:00,0,28111723,187059
OK,167,34,978,167,2014-10-01T09:15:00,0,28112172,187059
OK,167,34,978,167,2014-10-01T09:20:00,0,28112513,187059
OK,140,41,978,140,2014-10-01T09:25:00,2,28112962,187059
OK,140,41,978,140,2014-10-01T09:30:00,2,28113386,187059
OK,114,51,978,114,2014-10-01T09:35:00,1,28113835,187059
OK,131,44,978,131,2014-10-01T09:40:00,2,28114267,187059
OK,148,39,978,148,2014-10-01T09:45:00,1,28114716,187059
OK,161,36,978,161,2014-10-01T09:50:00,2,28115070,187059
OK,183,31,978,183,2014-10-01T09:55:00,3,28115519,187059
OK,227,25,978,227,2014-10-01T10:00:00,1,28115931,187059
OK,227,25,978,227,2014-10-01T10:05:00,0,28116380,187059
OK,163,35,978,163,2014-10-01T10:10:00,1,28116788,187059
OK,163,35,978,163,2014-10-01T10:15:00,1,28117237,187059
OK,183,31,978,183,2014-10-01T10:20:00,1,28117662,187059
OK,183,31,978,183,2014-10-01T10:25:00,3,28118111,187059
OK,163,35,978,163,2014-10-01T10:30:00,3,28118556,187059
OK,163,35,978,163,2014-10-01T10:35:00,1,28119003,187059
OK,163,35,978,163,2014-10-01T10:40:00,0,28119447,187059
OK,140,41,978,140,2014-10-01T10:45:00,2,28119895,187059
OK,140,41,978,140,2014-10-01T10:50:00,2,28120343,187059
OK,121,48,978,121,2014-10-01T10:55:00,0,28120792,187059
OK,123,47,978,123,2014-10-01T11:00:00,3,28121175,187059
OK,123,47,978,123,2014-10-01T11:05:00,3,28121624,187059
OK,123,47,978,123,2014-10-01T11:10:00,0,28122062,187059
OK,180,32,978,180,2014-10-01T11:15:00,2,28122511,187059
OK,164,35,978,164,2014-10-01T11:20:00,4,28122952,187059
OK,150,38,978,150,2014-10-01T11:25:00,3,28123401,187059
OK,192,30,978,192,2014-10-01T11:30:00,2,28123833,187059
OK,192,30,978,192,2014-10-01T11:35:00,2,28124282,187059
OK,122,47,978,122,2014-10-01T11:40:00,1,28124684,187059
OK,160,36,978,160,2014-10-01T11:45:00,3,28125133,187059
OK,152,38,978,152,2014-10-01T11:50:00,4,28125562,187059
OK,145,40,978,145,2014-10-01T11:55:00,2,28126011,187059
OK,146,39,978,146,2014-10-01T12:00:00,2,28126363,187059
OK,146,39,978,146,2014-10-01T12:05:00,2,28126812,187059
OK,147,39,978,147,2014-10-01T12:10:00,0,28127261,187059
OK,147,39,978,147,2014-10-01T12:15:00,0,28127710,187059
OK,147,39,978,147,2014-10-01T12:20:00,0,28128138,187059
OK,147,39,978,147,2014-10-01T12:25:00,1,28128587,187059
OK,147,39,978,147,2014-10-01T12:30:00,1,28129022,187059
OK,229,25,978,229,2014-10-01T12:35:00,1,28129471,187059
OK,229,25,978,229,2014-10-01T12:40:00,1,28129905,187059
OK,157,37,978,157,2014-10-01T12:45:00,1,28130354,187059
OK,185,31,978,185,2014-10-01T12:50:00,2,28130782,187059
OK,194,30,978,194,2014-10-01T12:55:00,3,28131231,187059
OK,183,31,978,183,2014-10-01T13:00:00,4,28131668,187059
OK,175,33,978,175,2014-10-01T13:05:00,4,28132117,187059
OK,224,26,978,224,2014-10-01T13:10:00,4,28132555,187059
OK,274,21,978,274,2014-10-01T13:15:00,4,28133002,187059
OK,232,25,978,232,2014-10-01T13:20:00,2,28133440,187059
OK,200,29,978,200,2014-10-01T13:25:00,3,28133889,187059
OK,196,29,978,196,2014-10-01T13:30:00,4,28134328,187059
OK,224,26,978,224,2014-10-01T13:35:00,2,28134777,187059
OK,247,23,978,247,2014-10-01T13:40:00,3,28135196,187059
OK,198,29,978,198,2014-10-01T13:45:00,4,28135645,187059
OK,176,33,978,176,2014-10-01T13:50:00,2,28136082,187059
OK,263,22,978,263,2014-10-01T13:55:00,1,28136531,187059
OK,277,21,978,277,2014-10-01T14:00:00,2,28136971,187059
OK,291,20,978,291,2014-10-01T14:05:00,3,28137420,187059
OK,273,21,978,273,2014-10-01T14:10:00,2,28137854,187059
OK,257,22,978,257,2014-10-01T14:15:00,2,28138303,187059
OK,231,25,978,231,2014-10-01T14:20:00,2,28138731,187059
OK,205,28,978,205,2014-10-01T14:25:00,1,28139180,187059
OK,291,20,978,291,2014-10-01T14:30:00,2,28139591,187059
OK,291,20,978,291,2014-10-01T14:35:00,2,28140040,187059
OK,314,18,978,314,2014-10-01T14:40:00,0,28140482,187059
OK,314,18,978,314,2014-10-01T14:45:00,0,28140931,187059
OK,242,24,978,242,2014-10-01T14:50:00,1,28141357,187059
OK,209,27,978,209,2014-10-01T14:55:00,2,28141806,187059
OK,176,33,978,176,2014-10-01T15:00:00,1,28142234,187059
OK,156,37,978,156,2014-10-01T15:05:00,3,28142683,187059
OK,156,37,978,156,2014-10-01T15:10:00,3,28143110,187059
OK,149,39,978,149,2014-10-01T15:15:00,1,28143559,187059
OK,149,39,978,149,2014-10-01T15:20:00,1,28144007,187059
OK,149,39,978,149,2014-10-01T15:25:00,0,28144456,187059
OK,149,39,978,149,2014-10-01T15:30:00,0,28144877,187059
OK,149,39,978,149,2014-10-01T15:35:00,0,28145291,187059
OK,149,39,978,149,2014-10-01T15:40:00,0,28145740,187059
OK,149,39,978,149,2014-10-01T15:45:00,0,28146189,187059
OK,149,39,978,149,2014-10-01T15:50:00,0,28146638,187059
OK,163,35,978,163,2014-10-01T15:55:00,2,28147046,187059
OK,166,35,978,166,2014-10-01T16:00:00,2,28147490,187059
OK,144,40,978,144,2014-10-01T16:05:00,0,28147939,187059
OK,144,40,978,144,2014-10-01T16:10:00,0,28148340,187059
OK,144,40,978,144,2014-10-01T16:15:00,0,28148789,187059
OK,125,46,978,125,2014-10-01T16:20:00,1,28149228,187059
OK,133,43,978,133,2014-10-01T16:25:00,3,28149677,187059
OK,212,27,978,212,2014-10-01T16:30:00,2,28150103,187059
OK,133,43,978,133,2014-10-01T16:35:00,0,28150552,187059
OK,133,43,978,133,2014-10-01T16:40:00,0,28150970,187059
OK,201,28,978,201,2014-10-01T16:45:00,1,28151419,187059
OK,201,28,978,201,2014-10-01T16:50:00,1,28151868,187059
OK,133,43,978,133,2014-10-01T17:00:00,0,28152317,187059
OK,133,43,978,133,2014-10-01T17:05:00,0,28152763,187059
OK,133,43,978,133,2014-10-01T17:10:00,0,28153210,187059
OK,152,38,978,152,2014-10-01T17:15:00,1,28153659,187059
OK,152,38,978,152,2014-10-01T17:20:00,1,28154069,187059
OK,152,38,978,152,2014-10-01T17:25:00,0,28154518,187059
OK,152,38,978,152,2014-10-01T17:30:00,0,28154960,187059
OK,152,38,978,152,2014-10-01T17:35:00,0,28155408,187059
OK,227,25,978,227,2014-10-01T17:40:00,2,28155826,187059
OK,225,25,978,225,2014-10-01T17:45:00,3,28156275,187059
OK,173,33,978,173,2014-10-01T17:50:00,1,28156723,187059
OK,173,33,978,173,2014-10-01T17:55:00,0,28157162,187059
OK,173,33,978,173,2014-10-01T18:00:00,0,28157592,187059
OK,173,33,978,173,2014-10-01T18:05:00,0,28158040,187059
OK,178,32,978,178,2014-10-01T18:10:00,1,28158484,187059
OK,178,32,978,178,2014-10-01T18:15:00,1,28158930,187059
OK,178,32,978,178,2014-10-01T18:20:00,0,28159376,187059
OK,178,32,978,178,2014-10-01T18:25:00,0,28159711,187059
OK,178,32,978,178,2014-10-01T18:30:00,0,28160160,187059
OK,178,32,978,178,2014-10-01T18:35:00,0,28160609,187059
OK,178,32,978,178,2014-10-01T18:40:00,0,28161047,187059
OK,280,20,978,280,2014-10-01T18:45:00,1,28161496,187059
OK,280,20,978,280,2014-10-01T18:50:00,1,28161913,187059
OK,126,46,978,126,2014-10-01T18:55:00,1,28162362,187059
OK,126,46,978,126,2014-10-01T19:00:00,1,28162756,187059
OK,126,46,978,126,2014-10-01T19:05:00,0,28163195,187059
OK,126,46,978,126,2014-10-01T19:10:00,0,28163643,187059
OK,162,35,978,162,2014-10-01T19:15:00,1,28164092,187059
OK,162,35,978,162,2014-10-01T19:20:00,0,28164523,187059
OK,162,35,978,162,2014-10-01T19:25:00,0,28164972,187059
OK,162,35,978,162,2014-10-01T19:30:00,0,28165397,187059
OK,162,35,978,162,2014-10-01T19:35:00,0,28165845,187059
OK,162,35,978,162,2014-10-01T19:40:00,0,28166286,187059
OK,162,35,978,162,2014-10-01T19:45:00,0,28166648,187059
OK,162,35,978,162,2014-10-01T19:50:00,0,28167097,187059
OK,162,35,978,162,2014-10-01T19:55:00,0,28167526,187059
OK,162,35,978,162,2014-10-01T20:00:00,0,28167959,187059
OK,162,35,978,162,2014-10-01T20:05:00,0,28168408,187059
OK,162,35,978,162,2014-10-01T20:10:00,0,28168853,187059
OK,162,35,978,162,2014-10-01T20:15:00,0,28169302,187059
OK,162,35,978,162,2014-10-01T20:20:00,0,28169750,187059
OK,162,35,978,162,2014-10-01T20:25:00,0,28170176,187059
OK,162,35,978,162,2014-10-01T20:30:00,0,28170621,187059
OK,162,35,978,162,2014-10-01T20:35:00,0,28171069,187059
OK,162,35,978,162,2014-10-01T20:40:00,0,28171506,187059
OK,162,35,978,162,2014-10-01T20:45:00,0,28171952,187059
OK,162,35,978,162,2014-10-01T20:50:00,0,28172400,187059
OK,162,35,978,162,2014-10-01T20:55:00,0,28172846,187059
OK,162,35,978,162,2014-10-01T21:00:00,0,28173292,187059
OK,162,35,978,162,2014-10-01T21:05:00,0,28173741,187059
OK,162,35,978,162,2014-10-01T21:10:00,0,28174182,187059
OK,162,35,978,162,2014-10-01T21:15:00,0,28174631,187059
OK,162,35,978,162,2014-10-01T21:20:00,0,28175057,187059
OK,162,35,978,162,2014-10-01T21:25:00,0,28175453,187059
OK,162,35,978,162,2014-10-01T21:30:00,0,28175902,187059
OK,162,35,978,162,2014-10-01T21:35:00,0,28176351,187059
OK,162,35,978,162,2014-10-01T21:40:00,0,28176800,187059
OK,176,33,978,176,2014-10-01T21:45:00,1,28177156,187059
OK,176,33,978,176,2014-10-01T21:50:00,1,28177596,187059
OK,176,33,978,176,2014-10-01T21:55:00,0,28178042,187059
OK,176,33,978,176,2014-10-01T22:00:00,0,28178491,187059
OK,176,33,978,176,2014-10-01T22:05:00,0,28178938,187059
OK,176,33,978,176,2014-10-01T22:10:00,0,28179372,187059
OK,176,33,978,176,2014-10-01T22:15:00,0,28179815,187059
OK,176,33,978,176,2014-10-01T22:20:00,0,28180262,187059
OK,176,33,978,176,2014-10-01T22:25:00,0,28180660,187059
OK,176,33,978,176,2014-10-01T22:30:00,0,28181109,187059
OK,176,33,978,176,2014-10-01T22:35:00,0,28181533,187059
OK,176,33,978,176,2014-10-01T22:40:00,0,28181981,187059
OK,176,33,978,176,2014-10-01T22:45:00,0,28182428,187059
OK,176,33,978,176,2014-10-01T22:50:00,0,28182877,187059
OK,176,33,978,176,2014-10-01T22:55:00,0,28183294,187059
OK,176,33,978,176,2014-10-01T23:00:00,0,28183727,187059
OK,176,33,978,176,2014-10-01T23:05:00,0,28184172,187059
OK,176,33,978,176,2014-10-01T23:10:00,0,28184621,187059
OK,176,33,978,176,2014-10-01T23:15:00,0,28185056,187059
OK,176,33,978,176,2014-10-01T23:20:00,0,28185504,187059
OK,176,33,978,176,2014-10-01T23:25:00,0,28185935,187059
OK,176,33,978,176,2014-10-01T23:30:00,0,28186327,187059
OK,176,33,978,176,2014-10-01T23:40:00,0,28187174,187059
OK,176,33,978,176,2014-10-01T23:55:00,0,28188506,187059
OK,176,33,978,176,2014-10-02T00:05:00,0,28189391,187059
OK,176,33,978,176,2014-10-02T00:10:00,0,28189813,187059
OK,176,33,978,176,2014-10-02T00:15:00,0,28190262,187059
OK,176,33,978,176,2014-10-02T00:20:00,0,28190615,187059
OK,176,33,978,176,2014-10-02T00:30:00,0,28191513,187059
OK,176,33,978,176,2014-10-02T00:35:00,0,28191819,187059
OK,176,33,978,176,2014-10-02T00:40:00,0,28192268,187059
OK,176,33,978,176,2014-10-02T00:45:00,0,28192701,187059
OK,176,33,978,176,2014-10-02T00:50:00,0,28193145,187059
OK,176,33,978,176,2014-10-02T00:55:00,0,28193512,187059
OK,176,33,978,176,2014-10-02T01:05:00,0,28194410,187059
OK,139,41,978,139,2014-10-02T01:10:00,1,28194859,187059
OK,139,41,978,139,2014-10-02T01:15:00,0,28195095,187059
OK,139,41,978,139,2014-10-02T01:25:00,0,28195993,187059
OK,139,41,978,139,2014-10-02T01:30:00,0,28196278,187059
OK,139,41,978,139,2014-10-02T01:35:00,0,28196726,187059
OK,139,41,978,139,2014-10-02T01:40:00,0,28197149,187059
OK,139,41,978,139,2014-10-02T01:45:00,0,28197598,187059
OK,139,41,978,139,2014-10-02T01:50:00,0,28198046,187059
OK,139,41,978,139,2014-10-02T01:55:00,0,28198494,187059
OK,139,41,978,139,2014-10-02T02:00:00,0,28198943,187059
OK,139,41,978,139,2014-10-02T02:05:00,0,28199315,187059
OK,139,41,978,139,2014-10-02T02:10:00,0,28199757,187059
OK,139,41,978,139,2014-10-02T02:15:00,0,28200199,187059
OK,139,41,978,139,2014-10-02T02:20:00,0,28200642,187059
OK,139,41,978,139,2014-10-02T02:25:00,0,28201091,187059
OK,139,41,978,139,2014-10-02T02:30:00,0,28201522,187059
OK,139,41,978,139,2014-10-02T02:45:00,0,28202420,187059
OK,139,41,978,139,2014-10-02T02:50:00,0,28202862,187059
OK,139,41,978,139,2014-10-02T02:55:00,0,28203310,187059
OK,139,41,978,139,2014-10-02T03:00:00,0,28203745,187059
OK,139,41,978,139,2014-10-02T03:10:00,0,28204194,187059
OK,139,41,978,139,2014-10-02T03:25:00,0,28204643,187059
OK,139,41,978,139,2014-10-02T03:30:00,0,28205092,187059
OK,113,51,978,113,2014-10-02T03:35:00,0,28205520,187059
OK,113,51,978,113,2014-10-02T03:40:00,0,28205967,187059
OK,113,51,978,113,2014-10-02T03:45:00,0,28206350,187059
OK,113,51,978,113,2014-10-02T03:55:00,0,28207248,187059
OK,113,51,978,113,2014-10-02T04:00:00,0,28207668,187059
OK,113,51,978,113,2014-10-02T04:05:00,0,28208116,187059
OK,113,51,978,113,2014-10-02T04:10:00,0,28208543,187059
OK,113,51,978,113,2014-10-02T04:15:00,0,28208992,187059
OK,142,41,978,142,2014-10-02T04:20:00,1,28209430,187059
OK,142,41,978,142,2014-10-02T04:25:00,0,28209879,187059
OK,142,41,978,142,2014-10-02T04:30:00,0,28210302,187059
OK,142,41,978,142,2014-10-02T04:35:00,0,28210751,187059
OK,142,41,978,142,2014-10-02T04:40:00,0,28211176,187059
OK,142,41,978,142,2014-10-02T04:45:00,0,28211620,187059
OK,142,41,978,142,2014-10-02T04:50:00,0,28211998,187059
OK,176,33,978,176,2014-10-02T04:55:00,1,28212447,187059
OK,176,33,978,176,2014-10-02T05:00:00,0,28212876,187059
OK,176,33,978,176,2014-10-02T05:05:00,0,28213325,187059
OK,176,33,978,176,2014-10-02T05:10:00,0,28213763,187059
OK,176,33,978,176,2014-10-02T05:15:00,0,28214212,187059
OK,176,33,978,176,2014-10-02T05:20:00,0,28214625,187059
OK,167,34,978,167,2014-10-02T05:25:00,1,28215074,187059
OK,167,34,978,167,2014-10-02T05:30:00,0,28215490,187059
OK,167,34,978,167,2014-10-02T05:35:00,0,28215939,187059
OK,274,21,978,274,2014-10-02T05:40:00,1,28216278,187059
OK,274,21,978,274,2014-10-02T05:45:00,1,28216718,187059
OK,274,21,978,274,2014-10-02T05:50:00,0,28217165,187059
OK,291,20,978,291,2014-10-02T05:55:00,6,28217614,187059
OK,349,16,978,349,2014-10-02T06:00:00,2,28218053,187059
OK,349,16,978,349,2014-10-02T06:05:00,0,28218502,187059
OK,349,16,978,349,2014-10-02T06:10:00,0,28218922,187059
OK,346,16,978,346,2014-10-02T06:15:00,0,28219371,187059
OK,373,15,978,373,2014-10-02T06:20:00,2,28219744,187059
OK,328,17,978,328,2014-10-02T06:25:00,4,28220193,187059
OK,214,27,978,214,2014-10-02T06:30:00,4,28220627,187059
OK,173,33,978,173,2014-10-02T06:35:00,2,28221076,187059
OK,200,29,978,200,2014-10-02T06:40:00,1,28221457,187059
OK,167,34,978,167,2014-10-02T06:45:00,1,28221743,187059
OK,184,31,978,184,2014-10-02T07:00:00,1,28222337,187059
OK,184,31,978,184,2014-10-02T07:05:00,0,28222786,187059
OK,184,31,978,184,2014-10-02T07:10:00,0,28223217,187059
OK,184,31,978,184,2014-10-02T07:15:00,0,28223652,187059
OK,184,31,978,184,2014-10-02T07:20:00,0,28224100,187059
OK,174,33,978,174,2014-10-02T07:25:00,2,28224455,187059
OK,153,38,978,153,2014-10-02T07:30:00,0,28224904,187059
OK,181,32,978,181,2014-10-02T07:35:00,1,28225353,187059
OK,181,32,978,181,2014-10-02T07:40:00,0,28225675,187059
OK,129,45,978,129,2014-10-02T07:50:00,1,28226565,187059
OK,129,45,978,129,2014-10-02T07:55:00,0,28227014,187059
OK,129,45,978,129,2014-10-02T08:00:00,0,28227429,187059
OK,149,39,978,149,2014-10-02T08:05:00,2,28227878,187059
OK,149,39,978,149,2014-10-02T08:10:00,0,28228237,187059
OK,148,39,978,148,2014-10-02T08:20:00,1,28229096,187059
OK,222,26,978,222,2014-10-02T08:25:00,2,28229545,187059
OK,277,21,978,277,2014-10-02T08:30:00,0,28229895,187059
OK,203,28,978,203,2014-10-02T08:35:00,1,28230344,187059
OK,203,28,978,203,2014-10-02T08:40:00,1,28230710,187059
OK,203,28,978,203,2014-10-02T08:45:00,0,28231159,187059
OK,160,36,978,160,2014-10-02T08:50:00,3,28231582,187059
OK,160,36,978,160,2014-10-02T08:55:00,3,28232031,187059
OK,153,38,978,153,2014-10-02T09:00:00,1,28232373,187059
OK,153,38,978,153,2014-10-02T09:10:00,0,28232822,187059
OK,153,38,978,153,2014-10-02T09:15:00,0,28233271,187059
OK,153,38,978,153,2014-10-02T09:20:00,0,28233695,187059
OK,283,20,978,283,2014-10-02T09:25:00,3,28234144,187059
OK,165,35,978,165,2014-10-02T09:30:00,1,28234477,187059
OK,122,47,978,122,2014-10-02T09:40:00,0,28235353,187059
OK,236,24,978,236,2014-10-02T09:45:00,1,28235802,187059
OK,236,24,978,236,2014-10-02T09:50:00,0,28236245,187059
OK,236,24,978,236,2014-10-02T09:55:00,0,28236692,187059
OK,236,24,978,236,2014-10-02T10:00:00,0,28237095,187059
OK,236,24,978,236,2014-10-02T10:05:00,0,28237543,187059
OK,185,31,978,185,2014-10-02T10:10:00,1,28237991,187059
OK,173,33,978,173,2014-10-02T10:15:00,1,28238438,187059
OK,174,33,978,174,2014-10-02T10:20:00,3,28238879,187059
OK,175,33,978,175,2014-10-02T10:25:00,3,28239328,187059
OK,175,33,978,175,2014-10-02T10:30:00,1,28239758,187059
OK,164,35,978,164,2014-10-02T10:35:00,2,28240207,187059
OK,140,41,978,140,2014-10-02T10:40:00,0,28240651,187059
OK,140,41,978,140,2014-10-02T10:45:00,0,28241100,187059
OK,140,41,978,140,2014-10-02T10:50:00,0,28241532,187059
OK,182,32,978,182,2014-10-02T10:55:00,1,28241980,187059
OK,182,32,978,182,2014-10-02T11:00:00,0,28242376,187059
OK,182,32,978,182,2014-10-02T11:05:00,0,28242825,187059
OK,210,27,978,210,2014-10-02T11:10:00,2,28243274,187059
OK,156,37,978,156,2014-10-02T11:15:00,3,28243600,187059
OK,154,37,978,154,2014-10-02T11:20:00,2,28244037,187059
OK,177,32,978,177,2014-10-02T11:25:00,0,28244466,187059
OK,177,32,978,177,2014-10-02T11:30:00,0,28244915,187059
OK,177,32,978,177,2014-10-02T11:35:00,0,28245364,187059
OK,177,32,978,177,2014-10-02T11:40:00,0,28245770,187059
OK,177,32,978,177,2014-10-02T11:45:00,0,28246219,187059
OK,148,39,978,148,2014-10-02T11:50:00,4,28246656,187059
OK,145,40,978,145,2014-10-02T11:55:00,3,28247105,187059
OK,176,33,978,176,2014-10-02T12:00:00,1,28247551,187059
OK,176,33,978,176,2014-10-02T12:05:00,1,28247981,187059
OK,176,33,978,176,2014-10-02T12:10:00,0,28248430,187059
OK,176,33,978,176,2014-10-02T12:15:00,0,28248877,187059
OK,176,33,978,176,2014-10-02T12:20:00,0,28249305,187059
OK,212,27,978,212,2014-10-02T12:25:00,1,28249749,187059
OK,212,27,978,212,2014-10-02T12:30:00,0,28250168,187059
OK,223,26,978,223,2014-10-02T12:35:00,2,28250566,187059
OK,196,29,978,196,2014-10-02T13:20:00,2,28251891,187059
OK,198,29,978,198,2014-10-02T13:30:00,1,28252475,187059
OK,198,29,978,198,2014-10-02T13:35:00,0,28252917,187059
OK,198,29,978,198,2014-10-02T13:40:00,0,28253334,187059
OK,198,29,978,198,2014-10-02T13:45:00,0,28253783,187059
OK,198,29,978,198,2014-10-02T13:50:00,0,28254188,187059
OK,269,21,978,269,2014-10-02T13:55:00,2,28254509,187059
OK,323,18,978,323,2014-10-02T14:10:00,2,28255086,187059
OK,258,22,978,258,2014-10-02T14:15:00,3,28255535,187059
OK,254,22,978,254,2014-10-02T14:20:00,1,28255963,187059
OK,254,22,978,254,2014-10-02T14:25:00,0,28256412,187059
OK,260,22,978,260,2014-10-02T14:30:00,2,28256840,187059
OK,262,22,978,262,2014-10-02T14:35:00,1,28257289,187059
OK,262,22,978,262,2014-10-02T14:40:00,0,28257730,187059
OK,190,30,978,190,2014-10-02T14:45:00,1,28258178,187059
OK,196,29,978,196,2014-10-02T14:50:00,2,28258611,187059
OK,202,28,978,202,2014-10-02T14:55:00,1,28259057,187059
OK,181,32,978,181,2014-10-02T15:00:00,4,28259506,187059
OK,160,36,978,160,2014-10-02T15:05:00,3,28259953,187059
OK,160,36,978,160,2014-10-02T15:10:00,0,28260386,187059
OK,132,44,978,132,2014-10-02T15:15:00,2,28260835,187059